Dewpoint
45 46 47 47 48 49 48 44 35 44 44 35 34 26 26 30 28 30 29 30 28 25 25 22 24 25 26 39 39 36 35 29 24 23 25 27 25 26 28 27 26 29 26 24
45 45 46 46 47 49 47 40 38 45 41 29 30 28 27 29 30 29 28 29 29 28 24 20 24 28 33 41 40 38 38 34 26 24 25 26 23 24 26 30 31 27 26 26
45 45 45 46 47 48 46 35 31 39 40 34 28 28 26 27 29 29 30 30 30 28 26 27 24 26 28 35 42 44 42 37 34 29 26 26 25 23 23 27 26 25 26 26
45 46 46 47 47 48 46 35 32 37 31 33 31 29 28 26 25 29 30 27 26 27 26 26 24 25 30 34 42 42 40 35 37 36 35 32 29 26 24 23 26 25 25 27
45 46 46 46 47 48 43 32 34 37 32 35 32 31 28 25 25 27 28 29 28 27 25 25 24 26 26 28 36 40 40 33 36 32 34 32 30 25 23 26 26 26 26 27
45 45 46 46 47 47 41 41 40 38 35 34 33 30 28 28 29 29 27 30 29 28 27 28 29 30 31 34 38 36 37 35 33 27 33 30 27 29 26 24 25 28 26 28
45 46 45 46 46 47 44 43 41 36 32 32 31 31 31 28 29 27 29 29 30 30 31 36 37 38 37 39 41 39 36 34 33 29 30 24 32 30 30 26 26 29 29 29
46 46 46 46 46 47 44 44 41 37 32 34 32 32 31 30 30 29 28 29 30 32 31 29 27 26 30 34 39 40 37 35 32 26 27 28 26 30 29 29 26 28 28 28
45 45 46 46 46 47 46 44 45 40 35 33 34 32 32 32 29 29 30 33 35 34 30 28 25 20 23 28 34 40 40 38 32 31 26 21 22 29 26 34 28 30 30 29
44 45 44 44 45 47 46 43 44 39 33 37 37 34 32 32 31 29 30 31 32 33 28 27 25 24 25 20 29 31 32 32 31 30 27 30 33 39 41 33 31 41 41 39
44 44 44 44 45 45 46 43 44 40 35 36 39 39 35 32 31 28 31 32 32 31 26 26 26 23 26 25 27 30 30 28 26 29 27 25 39 36 35 38 40 42 41 41
45 45 45 45 45 44 44 41 45 44 38 36 41 38 39 40 35 32 33 30 33 34 29 28 28 24 23 27 24 30 27 28 28 30 30 35 38 38 40 42 44 40 43 41
46 45 45 46 46 45 44 41 43 42 37 37 37 35 42 45 45 41 34 34 35 37 37 33 31 24 28 22 25 25 26 32 31 32 32 32 33 38 40 44 43 43 42 42
46 46 46 46 46 46 45 42 43 40 39 33 32 38 36 42 45 46 44 40 42 40 40 34 32 32 33 26 26 26 26 28 26 26 31 32 36 35 37 39 42 41 43 42
45 45 46 46 46 46 46 44 44 39 34 29 30 40 37 38 44 43 44 43 42 39 36 34 34 34 35 36 34 30 37 34 32 30 38 39 37 37 39 39 39 40 40 39
45 46 46 46 46 46 44 38 44 42 43 35 27 37 39 38 42 41 41 41 41 41 39 34 38 40 37 29 27 35 36 37 37 38 39 39 41 39 39 39 40 41 41 39
45 45 46 45 45 45 38 36 41 43 44 36 32 29 40 41 41 40 39 42 41 39 38 36 36 37 40 31 28 32 33 34 36 39 39 40 41 39 39 39 38 35 32 31
45 46 46 45 45 45 43 44 43 44 41 39 31 32 35 42 37 36 41 38 39 40 37 39 37 38 37 26 30 31 31 33 36 35 39 39 39 36 35 34 33 31 29 27
45 45 44 43 42 39 41 44 43 45 40 32 28 26 29 39 36 36 37 38 32 39 33 34 37 30 23 26 29 28 30 31 33 34 37 38 35 33 33 30 31 28 26 25
43 41 37 33 41 46 44 41 37 36 38 34 26 30 33 37 33 30 32 33 32 30 33 35 27 24 27 28 26 29 30 32 33 33 33 33 35 32 30 28 27 26 24 24
40 37 35 41 44 40 36 31 31 32 26 29 31 31 31 36 33 32 33 32 31 27 31 27 23 20 25 26 24 25 28 30 30 32 29 28 28 28 26 25 25 24 23 23
37 39 40 39 34 28 26 23 26 28 28 32 34 35 35 34 38 33 33 31 31 23 28 22 16 22 25 24 23 24 25 25 25 25 24 24 23 23 22 21 21 21 22 21
38 33 27 25 21 14 14 21 25 24 28 28 31 32 33 35 35 32 32 28 28 29 19 15 18 23 23 24 22 22 24 23 23 23 23 22 22 23 22 21 21 21 20 21
27 23 14 15 11 17 18 19 21 25 27 27 30 32 32 32 31 29 24 24 23 14 10 11 18 22 23 23 23 21 21 22 22 21 21 21 21 20 21 21 21 19 18 19
22 19 12 15 21 21 21 23 25 27 28 29 31 31 29 25 24 23 22 14 9 12 7 13 20 22 22 22 22 22 21 21 21 21 21 20 20 19 19 21 21 20 20 19
22 19 15 17 13 14 15 17 20 26 26 28 27 23 22 20 20 16 14 9 7 10 14 19 19 19 19 19 20 21 22 22 22 22 22 21 20 19 19 19 19 19 18 17
21 19 21 17 10 11 15 19 21 26 24 21 20 13 14 21 16 10 13 10 13 16 16 17 19 18 18 19 20 20 19 19 19 20 21 21 22 21 17 16 18 18 18 17
Lifted_Index
4 4 4 4 4 3 3 3 4 5 5 6 7 8 8 8 7 6 6 5 5 5 5 5 4 2 2 2 2 2 3 4 5 4 4 3 2 2 1 1 1 2 3 3
4 4 4 4 4 3 2 2 3 3 4 5 6 6 6 6 6 6 5 5 5 5 5 5 4 3 2 2 2 2 3 3 4 4 3 3 3 2 1 1 2 2 3 3
4 4 4 4 3 3 2 1 2 2 3 4 4 4 4 4 5 5 5 4 4 4 4 4 4 4 3 2 1 1 2 2 2 3 3 3 3 2 2 2 2 3 3 3
4 4 4 4 3 3 2 2 2 2 3 4 4 4 4 3 4 4 4 4 4 4 4 4 4 4 4 3 2 1 2 2 2 2 2 2 2 2 2 2 2 2 3 3
5 4 4 4 3 3 2 2 3 3 3 4 4 4 3 3 4 4 4 4 4 4 4 4 4 4 4 3 2 1 2 2 2 2 1 1 1 2 2 2 2 2 2 2
5 5 4 4 3 3 3 4 4 3 3 4 4 4 4 4 4 5 5 4 4 4 4 4 4 4 4 3 1 1 2 2 2 2 1 1 1 2 2 2 2 2 2 2
5 5 5 4 4 4 4 4 4 4 4 4 4 4 4 4 5 5 5 5 4 3 4 4 4 4 3 2 1 1 1 2 2 2 2 2 2 2 1 1 1 1 1 1
6 5 5 5 4 4 5 5 5 4 4 4 4 5 5 5 5 5 5 5 4 4 4 4 4 3 3 2 1 1 1 1 1 2 2 2 2 2 2 1 1 1 1 1
6 6 6 5 5 5 5 5 5 4 4 4 4 5 5 5 5 5 4 4 4 4 4 4 4 3 3 3 2 1 1 1 1 1 2 2 3 2 2 1 1 1 1 1
7 7 7 6 6 6 5 6 6 5 5 5 5 5 5 5 5 4 4 4 4 5 5 4 4 3 3 3 3 2 1 1 1 1 2 2 2 1 1 1 1 1 0 1
7 7 7 7 6 6 6 6 6 6 5 5 5 5 5 5 5 4 4 3 4 4 5 5 4 4 4 3 3 3 2 2 1 1 1 2 2 1 1 1 1 1 0 0
5 6 6 6 6 6 6 6 6 6 6 6 6 5 5 5 5 4 4 3 3 3 3 4 4 4 3 3 3 3 2 2 1 1 1 2 2 2 2 2 2 1 1 0
4 4 4 4 4 5 5 6 6 6 5 6 6 6 6 5 4 3 3 2 2 1 2 2 2 3 3 3 3 2 2 1 1 1 1 2 2 2 1 1 1 2 1 1
2 2 2 3 3 3 3 4 5 5 4 5 5 5 5 4 3 2 2 1 1 0 1 1 1 1 2 2 2 2 1 1 1 1 1 1 1 1 1 0 0 1 1 1
1 1 1 1 1 1 2 3 3 3 3 3 4 4 3 3 2 2 1 1 0 0 0 0 0 0 1 1 1 1 1 1 1 1 1 0 0 0 1 0 -0 0 1 1
1 1 1 1 1 1 1 2 2 2 2 2 2 2 2 2 1 1 1 1 1 0 0 0 0 0 0 0 0 1 1 1 1 1 1 1 0 0 0 -0 -0 -0 0 0
1 0 0 0 0 0 1 1 1 2 2 2 1 1 1 1 1 1 1 0 0 0 1 1 0 0 0 1 1 1 1 1 1 1 1 1 0 0 0 -0 -1 -1 -0 0
0 0 0 1 1 0 0 1 1 1 1 1 1 0 0 0 0 0 0 0 -0 0 1 1 1 0 1 1 1 1 1 1 1 1 1 0 0 0 0 -0 -0 -1 -0 1
1 1 1 1 1 1 1 1 1 1 1 1 1 0 0 0 0 0 0 0 0 0 1 1 1 1 1 1 2 2 1 1 1 1 1 1 0 0 0 -0 -0 -0 0 1
1 1 1 1 1 1 1 1 1 1 1 1 1 0 0 0 1 1 1 1 1 1 1 0 1 1 2 3 4 3 3 3 3 2 2 1 1 1 0 0 0 0 1 1
1 1 1 2 2 1 1 1 1 1 1 1 1 1 1 1 1 1 1 1 1 1 1 1 1 2 4 5 5 5 5 5 4 4 3 3 2 2 1 1 1 2 2 2
2 2 2 2 2 2 1 1 1 1 1 1 1 1 1 1 2 1 1 1 1 1 1 2 2 4 6 7 7 7 7 7 6 6 5 5 4 4 4 3 4 4 4 4
2 2 2 2 2 2 1 1 2 2 2 2 2 2 2 2 2 1 1 1 1 2 2 2 4 6 8 9 9 8 8 8 8 8 7 7 7 7 7 7 7 7 8 8
2 2 2 2 3 3 3 2 2 2 2 3 3 2 2 2 2 1 1 1 2 2 2 3 6 9 10 11 11 10 10 10 10 10 10 10 9 10 10 11 11 11 11 12
3 3 3 3 4 4 4 4 3 3 3 3 3 3 2 2 2 2 1 2 2 3 4 6 9 11 12 12 12 12 11 12 12 12 11 12 12 12 12 13 14 14 14 14
5 5 5 5 5 5 5 4 4 4 4 3 3 3 2 2 2 2 2 3 4 6 8 10 12 13 13 13 13 13 13 13 13 13 13 13 14 14 14 14 15 15 15 15
6 7 7 7 6 5 5 4 4 4 4 3 3 2 3 3 2 2 3 4 7 9 11 13 13 13 13 13 14 14 14 13 13 13 13 14 15 15 15 14 15 16 16 16